Location: Maccacari
(45.1333°N, 11.1333°E)
Time: 02:15:08
(UTC+00:00)

Altair - Pass Details

Date: 27 January 2021
Orbit: 1501 x 1682 km, 47.2° (Epoch: 01 March)

Event Time Altitude Azimuth Distance (km) Brightness Sun altitude
Rises 09:59:21 0° 294° (WNW) 4,940 9.8 23.4°
Reaches altitude 10° 10:02:41 10° 289° (WNW) 3,949 9.4 23.6°
Maximum altitude 10:12:09 46° 220° (SW) 2,122 8.9 24.2°
Drops below altitude 10° 10:21:25 10° 151° (SSE) 3,862 11.4 24.7°
Sets 10:24:39 0° 146° (SE) 4,822 11.3 24.9°
